User: anonymous   Login
Location: Kitchener
(43.2612°N, 80.5078°W)
Time: 13:15:20
(UTC+02:00)
Language:

Iridium 57 - Orbit

View from above orbital plane
View from above orbital plane
View from above satellite
View from above satellite

Ground track
Ground track

The orbit data is extracted from the following two-line orbital elements,

1 25273U 98019B   16120.50588750  .00000029  00000-0  32515-5 0  9996
2 25273  86.3937 100.2638 0002229  86.5260 273.6191 14.34214594946778
Epoch (UTC): 29 April 2016 12:08:28
Eccentricity: 0.0002229
inclination: 86.3937°
perigee height: 776 km
apogee height: 779 km
right ascension of ascending node: 100.2638°
argument of perigee: 86.5260°
revolutions per day: 14.34214594
mean anomaly at epoch: 273.6191°
orbit number at epoch: 94677

The dashed part of the orbit path shows where the satellite is in the earth's shadow,  

DLR